Location: Holcomb Observatory and Planetarium
(39.8415°N, 86.1714°W)
Time: 03:27:58
(UTC-05:00)

ISS - Visible Passes

Search period start: 05 December 2016 00:00
Search period end: 15 December 2016 00:00
Orbit: 401 x 410 km, 51.6° (Epoch: 05 December)

Date Brightness Start Highest point End Pass type
(mag) Time Alt. Az. Time Alt. Az. Time Alt. Az.
05 Dec -0.8 19:13:07 10° NW 19:14:52 14° NNW 19:14:52 14° NNW visible
06 Dec -1.2 18:20:24 10° WNW 18:22:50 19° NNW 18:24:59 11° NNE visible
07 Dec -0.6 19:06:50 10° NNW 19:07:44 11° NNW 19:07:44 11° NNW visible
08 Dec -0.9 18:14:00 10° NW 18:15:42 13° NNW 18:17:25 10° NNE visible
09 Dec -0.6 19:00:06 10° NNW 19:00:30 11° N 19:00:30 11° N visible
10 Dec -0.8 18:07:36 10° NNW 18:08:37 11° N 18:09:38 10° NNE visible
11 Dec -0.8 18:52:27 10° NNW 18:53:18 12° N 18:53:18 12° N visible
12 Dec -0.9 18:00:32 10° NNW 18:01:31 11° N 18:02:29 10° NNE visible
13 Dec -1.3 18:44:29 10° NNW 18:46:16 16° N 18:46:16 16° N visible
14 Dec -1.1 17:52:41 10° NNW 17:54:19 13° NNE 17:55:58 10° NE visible
14 Dec -0.8 19:28:22 10° NW 19:29:12 16° NW 19:29:12 16° NW visible
